Cedar Rapids, IA

3:49 PM CST on December 12, 2019 (GMT -0600)
The Eastern Iowa Airport

Weather History for KCID - August, 2019

Change the Weather History Date:

Friday, August 2, 2019

  Actual Average Record
Temperature  
Mean Temperature 71 °F 72 °F  
Max Temperature 83 °F 83 °F 99 °F (1988)
Min Temperature 58 °F 62 °F 49 °F (1927)
Degree Days  
Heating Degree Days 0 0  
Month to date heating degree days 0 0  
Since 1 June heating degree days 11 33  
Since 1 July heating degree days 0 4  
Cooling Degree Days 6 8  
Month to date cooling degree days 11 16  
Year to date cooling degree days 513 483  
Since 1 June cooling degree days 485 434  
Growing Degree Days 20 (Base 50)    
Moisture  
Dew Point 57 °F    
Average Humidity 67    
Maximum Humidity 97    
Minimum Humidity 37    
Precipitation  
Precipitation 0.00 in 0.14 in 3.75 in (1929)
Month to date precipitation 0.00 0.28  
Year to date precipitation 22.59 21.10  
Sea Level Pressure  
Sea Level Pressure 30.12 in    
Wind  
Wind Speed 5 mph (ESE)    
Max Wind Speed 13 mph    
Max Gust Speed 16 mph    
Visibility 10 miles    
Events      
T = Trace of Precipitation, MM = Missing Value Source: NWS Daily Summary

Daily Weather History Graph

Daily Weather History Graph

Search for Another Location

Airport or City:

Astronomy

Aug. 02, 2019 Rise Set
Actual Time 6:01 AM CDT 8:24 PM CDT
Civil Twilight 5:30 AM CDT 8:55 PM CDT
Nautical Twilight 4:51 AM CDT 9:34 PM CDT
Astronomical Twilight 4:07 AM CDT 10:17 PM CDT
Moon 7:41 AM CDT (8/2) 9:51 PM CDT (8/2)
Length of Visible Light 15h 25m
Length of Day
14h 22m
Waxing Crescent, 4% of the Moon is Illuminated
Aug 2
Waxing Crescent
Aug 7
First Quarter
Aug 15
Full
Aug 23
Last Quarter
Aug 30
New

Hourly Weather History & Observations

Time (CDT) Temp. Heat Index Dew Point Humidity Pressure Visibility Wind Dir Wind Speed Gust Speed Precip Events Conditions
12:52 AM 62.1 °F - 59.0 °F 90% 30.17 in 10.0 mi ESE 3.5 mph - N/A   Clear
1:52 AM 62.1 °F - 59.0 °F 90% 30.16 in 10.0 mi East 5.8 mph - N/A   Unknown
2:52 AM 61.0 °F - 59.0 °F 93% 30.15 in 10.0 mi Calm Calm - N/A   Unknown
3:52 AM 61.0 °F - 57.9 °F 90% 30.14 in 10.0 mi ESE 3.5 mph - N/A   Unknown
4:52 AM 60.1 °F - 57.0 °F 90% 30.13 in 10.0 mi ESE 3.5 mph - N/A   Clear
5:52 AM 57.9 °F - 55.9 °F 93% 30.13 in 10.0 mi East 5.8 mph - N/A   Clear
6:52 AM 59.0 °F - 57.0 °F 93% 30.14 in 10.0 mi Calm Calm - N/A   Clear
7:52 AM 64.0 °F - 60.1 °F 87% 30.16 in 10.0 mi ESE 3.5 mph - N/A   Clear
8:52 AM 70.0 °F - 57.9 °F 65% 30.17 in 10.0 mi SSE 6.9 mph - N/A   Clear
9:52 AM 73.0 °F - 57.0 °F 57% 30.17 in 10.0 mi SSE 8.1 mph - N/A   Clear
10:52 AM 77.0 °F - 57.0 °F 50% 30.16 in 10.0 mi South 4.6 mph - N/A   Clear
11:52 AM 77.0 °F - 57.0 °F 50% 30.15 in 10.0 mi South 4.6 mph - N/A   Clear
12:52 PM 79.0 °F - 57.9 °F 48% 30.13 in 10.0 mi SSE 8.1 mph - N/A   Clear
1:52 PM 81.0 °F 80.8 °F 55.9 °F 42% 30.12 in 10.0 mi East 6.9 mph - N/A   Clear
2:52 PM 82.0 °F 81.7 °F 57.0 °F 42% 30.11 in 10.0 mi SSE 8.1 mph - N/A   Clear
3:52 PM 82.0 °F 81.2 °F 53.1 °F 37% 30.10 in 10.0 mi East 4.6 mph - N/A   Clear
4:52 PM 82.0 °F 81.3 °F 54.0 °F 38% 30.09 in 10.0 mi ESE 6.9 mph - N/A   Clear
5:52 PM 81.0 °F 80.8 °F 55.9 °F 42% 30.08 in 10.0 mi ESE 8.1 mph - N/A   Clear
6:52 PM 77.0 °F - 60.1 °F 56% 30.08 in 10.0 mi East 4.6 mph - N/A   Clear
7:52 PM 73.9 °F - 59.0 °F 59% 30.08 in 10.0 mi East 5.8 mph - N/A   Clear
8:52 PM 70.0 °F - 57.0 °F 63% 30.07 in 10.0 mi East 4.6 mph - N/A   Clear
9:52 PM 69.1 °F - 55.9 °F 63% 30.08 in 10.0 mi East 5.8 mph - N/A   Clear
10:52 PM 64.9 °F - 57.0 °F 75% 30.09 in 10.0 mi Calm Calm - N/A   Clear
11:52 PM 66.0 °F - 55.9 °F 70% 30.09 in 10.0 mi Calm Calm - N/A   Unknown